Rechercher aéroport 
image banner adimage banner adimage banner ad
image banner ad

CN63 - Exeter

Situé à Exeter, United States

ICAO - CN63, IATA -

Données fournies par Airmate  

Information générale

Coordonnées: N36°14'33" W119°8'58"
Élévation : 344 feet MSL.
Variation magnétique : 15° East
Voir autres Aéroports à California

Données opérationnelles

Special qualification required
Heure actuelle UTC:
Heure actuelle locale:
Météo à : KVIS - Visalia Muni ( 23 km )
METAR: KVIS 212336Z AUTO 35004KT 3SM HZ CLR 32/11 A3002 RMK AO2
TAF: KVIS 211720Z 2118/2218 VRB03KT 5SM HZ FU SCT003 BKN090 TEMPO 2118/2122 3SM FU BKN007
Voir NOTAMs / SUP AIP / TFR affectant cet aéroport [VIEW]
Fréquences de communication: [VIEW]

Pistes:

Identifiant RWYQFULongueur (ft)Largeur (ft)SurfaceLDA (ft)
13231540OTHER
31231540OTHER

Coordonnées de l'aéroport

Adresse: Exeter United States

Vue satellite de CN63